Location: Unspecified
(0.0000°N, 0.0000°E)
Time: 04:42:24
(UTC+02:00)

DELTA 2 R/B (1) - Visible Passes

Search period start: 24 April 2014 00:00
Search period end: 04 May 2014 00:00
Orbit: 791 x 804 km, 39.6° (Epoch: 22 April)

Date Brightness Start Highest point End Pass type
(mag) Time Alt. Az. Time Alt. Az. Time Alt. Az.
30 Apr 5.3 21:27:56 10° S 21:29:47 17° S 21:29:47 17° S visible
01 May 4.9 20:57:38 10° S 21:01:38 20° SE 21:01:59 20° SE visible
01 May 6.2 22:42:34 10° WSW 22:42:52 12° WSW 22:42:52 12° WSW visible
02 May 5.0 20:27:23 10° S 20:31:03 18° SE 20:34:27 11° E visible
02 May 4.7 22:11:58 10° SW 22:15:21 37° WSW 22:15:21 37° WSW visible
03 May 3.6 21:41:23 10° SW 21:46:56 76° NW 21:48:05 56° NNE visible
